Location: Hermaringen
(48.5952°N, 10.2585°E)
Time: 10:05:03
(UTC+00:00)

A-11 Canister half - Pass Details

Date: 23 February 2026
Orbit: 1513 x 1687 km, 47.2° (Epoch: 11 March)

Event Time Altitude Azimuth Distance (km) Brightness Sun altitude
Rises 18:31:15 0° 222° (SW) 4,925 12.2 -16.9°
Reaches altitude 10° 18:34:33 10° 217° (SW) 3,944 11.6 -17.5°
Maximum altitude 18:44:09 50° 146° (SSE) 2,064 9.4 -19.1°
Enters shadow 18:49:27 28° 89° (E) 2,779 9.7 -19.9°
